Terminal Aerodrome Forecast
Issued by NWS

Home | Current Version | Previous Version | Text Only | Print | Product List | Glossary On
Versions: 1 2 3 4 5 6 7 8 9 10 11 12 13 14 15 16 17 18 19 20 21 22 23 24 25 26 27 28 29 30 31 32 33 34 35 36 37 38 39 40 41 42 43 44 45 46 47 48 49 50
000
FTAK31 PANC 050707 AAA
TAFASN
TAF AMD
PASN 050707Z 0507/0606 05010KT 1SM -RA BR BKN002 OVC007
     FM051200 12011KT 1SM BR OVC002
     FM051700 06014G22KT 3SM -RA BR OVC006
     FM052000 06020G30KT 2SM -RA BR OVC004=

USA.gov is the U.S. government's official web portal to all federal, state and local government web resources and services.